Home > Weather > Gmünd > Past weeks

Flag for Austria Past Weather in Gmünd, Lower Austria, Austria — Yesterday and Last 2 Weeks

Now
65 °F

Mild.


Feels Like: 65 °F
Forecast: 58 / 72 °F
Wind: 1 mph from West

Location: Retz

Current Time: Jul 29, 2016 at 2:24:10 AM

Latest Report: Jul 29, 2016 at 1:00 AM


Visibility: N/A

Pressure: 29.96 "Hg

Humidity: 77%

Dew Point: 58 °F

Location of GmündLocation

Past Weather in Gmünd — Graph

°F

Gmünd Temperature Yesterday

Maximum temperature yesterday: 80 °F (at 5:00 PM)
Minimum temperature yesterday: 65 °F (at 4:00 AM)
Average temperature yesterday: 71 °F

High & Low Weather Summary for the Past Weeks

 TemperatureHumidityPressure
High84 °F (Jul 23, 5:00 PM)98% (Jul 22, 2:00 AM)30.23 "Hg (Jul 22, 2:00 AM)
Low52 °F (Jul 15, 5:00 AM)41% (Jul 18, 3:00 PM)29.74 "Hg (Jul 14, 9:00 AM)
Average69 °F71%30.02 "Hg
* Reported Jul 14 12:00 AM — Jul 29 12:00 AM, Gmünd, Weather by CustomWeather, © 2016

Note: Actual official high and low records may vary slightly from our data, if they occured in-between our weather recording intervals... More about our weather records

Advertising

Gmünd Weather History for the Previous 24 Hours

Scroll right to see more
 ConditionsComfort  
Time TempWeatherWind HumidityBarometerVisibility
12:00 AM
Fri, Jul 29
68 °FMild.1 mph71%29.96 "HgN/A
11:00 PM
Thu, Jul 28
70 °FMild.7 mph65%29.96 "HgN/A
10:00 PM70 °FMild.7 mph69%29.96 "HgN/A
9:00 PM71 °FMild.7 mph68%29.95 "HgN/A
8:00 PM73 °FPartly sunny.6 mph60%29.94 "Hg12 mi
7:00 PM75 °FMild.5 mph63%29.92 "HgN/A
6:00 PM78 °FWarm.No wind50%29.93 "HgN/A
5:00 PM80 °FWarm.2 mph51%29.92 "HgN/A
4:00 PM79 °FWarm.3 mph49%29.94 "HgN/A
3:00 PM79 °FWarm.3 mph52%29.94 "HgN/A
2:00 PM78 °FWarm.6 mph55%29.96 "HgN/A
1:00 PM77 °FWarm.3 mph60%29.98 "HgN/A
12:00 PM76 °FMild.1 mph62%29.98 "HgN/A
11:00 AM75 °FMild.2 mph70%29.99 "HgN/A
10:00 AM70 °FMild.2 mph78%30.01 "HgN/A
9:00 AM68 °FMild.3 mph86%30.01 "HgN/A
8:00 AM66 °FSprinkles. Overcast.1 mph88%30.00 "Hg11 mi
7:00 AM65 °FOvercast.1 mph88%30.00 "Hg11 mi
6:00 AM65 °FMild.5 mph87%29.98 "HgN/A
5:00 AM65 °FMild.7 mph89%29.97 "HgN/A
4:00 AM65 °FMild.5 mph91%29.98 "HgN/A
3:00 AM65 °FMild.6 mph89%29.99 "HgN/A
2:00 AM65 °FMild.3 mph95%29.99 "HgN/A
Weather by CustomWeather, © 2016

See weather overviewHow to use our weather pages